Alexandria, LA

1:04 PM CST on December 17, 2017 (GMT -0600)
Alexandria International

Weather History for KAEX - December, 2002

Change the Weather History Date:

Tuesday, December 31, 2002

  Actual Average Record
Temperature  
Mean Temperature 50 °F 49 °F  
Max Temperature 55 °F 59 °F 81 °F (1984)
Min Temperature 45 °F 39 °F 13 °F (1983)
Degree Days  
Heating Degree Days 15 16  
Month to date heating degree days 465  
Since 1 July heating degree days 789  
Moisture  
Dew Point 49 °F    
Average Humidity 95    
Maximum Humidity 100    
Minimum Humidity 86    
Precipitation  
Precipitation 0.63 in 0.13 in 2.39 in (1911)
Month to date precipitation 6.12  
Year to date precipitation 55.92  
Snow  
Snow 0.00 in - 0.00 in ()
Month to date snowfall  
Since 1 July snowfall  
Snow Depth -    
Sea Level Pressure  
Sea Level Pressure 29.72 in    
Wind  
Wind Speed 11 mph (NW)    
Max Wind Speed 22 mph    
Max Gust Speed 28 mph    
Visibility 7 miles    
Events Rain , Thunderstorm    
T = Trace of Precipitation, MM = Missing Value Source: NWS Daily Summary

Daily Weather History Graph

Daily Weather History Graph

Search for Another Location

Airport or City:

Trip Planner

Search our weather history database for the weather conditions in past years. The results will help you decide how hot, cold, wet, or windy it might be!

Date:

Astronomy

Dec. 31, 2002 Rise Set
Actual Time 7:08 AM CST 5:17 PM CST
Civil Twilight 6:42 AM CST 5:44 PM CST
Nautical Twilight 6:11 AM CST 6:14 PM CST
Astronomical Twilight 5:42 AM CST 6:44 PM CST
Moon 4:54 AM CST (12/31) 3:20 PM CST (12/31)
Length of Visible Light 11h 02m
Length of Day
10h 08m
Waning Crescent, 6% of the Moon is Illuminated
Dec 31
Waning Crescent
Jan 2
New
Jan 10
First Quarter
Jan 18
Full
Jan 25
Last Quarter

Hourly Weather History & Observations

Time (CST) Temp. Windchill Dew Point Humidity Pressure Visibility Wind Dir Wind Speed Gust Speed Precip Events Conditions
12:01 AM 53.6 °F - 53.6 °F 100% 29.80 in 4.0 mi NW 10.4 mph - 0.03 in Rain , Thunderstorm Heavy Rain
12:09 AM 53.6 °F - 53.6 °F 100% 29.80 in 5.0 mi NW 9.2 mph - 0.05 in Rain , Thunderstorm Rain
12:53 AM 54.0 °F - 53.1 °F 97% 29.84 in 6.0 mi West 9.2 mph - 0.13 in Rain , Thunderstorm Rain
1:11 AM 53.6 °F - 53.6 °F 100% 29.84 in 4.0 mi Variable 4.6 mph - 0.07 in Rain , Thunderstorm Heavy Rain
1:35 AM 53.6 °F - 53.6 °F 100% 29.82 in 3.0 mi NNW 3.5 mph - 0.18 in Rain , Thunderstorm Heavy Rain
1:53 AM 53.1 °F - 53.1 °F 100% 29.79 in 6.0 mi ENE 5.8 mph - 0.26 in Rain Rain
2:04 AM 53.6 °F - 53.6 °F 100% 29.70 in 6.0 mi ENE 13.8 mph - 0.03 in Rain , Thunderstorm Heavy Thunderstorms and Rain
2:27 AM 53.6 °F - 53.6 °F 100% 29.69 in 10.0 mi NE 12.7 mph - 0.05 in Rain Light Rain
2:53 AM 54.0 °F - 53.1 °F 97% 29.71 in 10.0 mi ENE 8.1 mph 18.4 mph 0.05 in Rain Light Rain
3:53 AM 54.0 °F - 53.1 °F 97% 29.68 in 10.0 mi ESE 5.8 mph - 0.01 in   Clear
4:53 AM 53.1 °F - 53.1 °F 100% 29.62 in 10.0 mi ESE 4.6 mph - N/A   Clear
5:53 AM 53.1 °F - 53.1 °F 100% 29.66 in 10.0 mi SW 4.6 mph - N/A   Overcast
6:19 AM 53.6 °F - 53.6 °F 100% 29.67 in 10.0 mi WNW 11.5 mph - N/A   Overcast
6:53 AM 54.0 °F - 53.1 °F 97% 29.71 in 10.0 mi WNW 10.4 mph - 0.00 in Rain Light Rain
7:53 AM 53.1 °F - 53.1 °F 100% 29.72 in 3.0 mi NW 11.5 mph - 0.05 in Rain Light Rain
8:53 AM 54.0 °F - 53.1 °F 97% 29.72 in 9.0 mi NW 11.5 mph - 0.01 in   Overcast
9:53 AM 54.0 °F - 53.1 °F 97% 29.72 in 10.0 mi NW 9.2 mph - N/A   Overcast
10:33 AM 55.4 °F - 53.6 °F 94% 29.71 in 10.0 mi NW 9.2 mph - 0.00 in Rain Light Rain
10:53 AM 55.0 °F - 53.1 °F 93% 29.72 in 10.0 mi WNW 9.2 mph - 0.00 in   Overcast
11:53 AM 54.0 °F - 53.1 °F 97% 29.69 in 7.0 mi NW 10.4 mph - 0.04 in Rain Light Rain
12:16 PM 53.6 °F - 53.6 °F 100% 29.66 in 2.5 mi NW 10.4 mph - 0.02 in Rain Light Rain
12:43 PM 53.6 °F - 53.6 °F 100% 29.65 in 2.0 mi WNW 12.7 mph - 0.02 in   Overcast
12:53 PM 53.1 °F - 52.0 °F 96% 29.66 in 2.0 mi NW 16.1 mph 20.7 mph 0.02 in   Overcast
12:55 PM 53.6 °F - 51.8 °F 94% 29.65 in 2.0 mi NW 15.0 mph - N/A   Overcast
1:53 PM 51.1 °F - 48.0 °F 89% 29.68 in 2.0 mi NW 18.4 mph 25.3 mph N/A   Overcast
2:00 PM 51.8 °F - 48.2 °F 88% 29.66 in 10.0 mi NW 18.4 mph - 0.00 in Rain Light Rain
2:39 PM 50.0 °F - 48.2 °F 94% 29.67 in 4.0 mi WNW 16.1 mph 23.0 mph 0.01 in Rain Light Rain
2:53 PM 48.9 °F - 48.0 °F 97% 29.69 in 6.0 mi NW 19.6 mph 25.3 mph 0.01 in Rain Light Rain
3:15 PM 48.2 °F - 48.2 °F 100% 29.68 in 3.0 mi WNW 11.5 mph - 0.00 in Rain Light Rain
3:24 PM 48.2 °F - 46.4 °F 93% 29.68 in 4.0 mi NW 21.9 mph 27.6 mph 0.00 in Rain Light Rain
3:33 PM 46.4 °F 39.0 °F 44.6 °F 93% 29.69 in 10.0 mi NW 19.6 mph 27.6 mph 0.01 in Rain Light Rain
3:53 PM 46.9 °F - 45.0 °F 93% 29.71 in 5.0 mi WNW 16.1 mph 23.0 mph 0.01 in Rain Light Rain
4:00 PM 46.4 °F 40.1 °F 44.6 °F 93% 29.70 in 4.0 mi WNW 15.0 mph 23.0 mph 0.00 in Rain Light Rain
4:11 PM 46.4 °F 40.1 °F 44.6 °F 93% 29.71 in 2.5 mi WNW 15.0 mph - 0.01 in Rain Rain
4:25 PM 46.4 °F 40.4 °F 44.6 °F 93% 29.72 in 2.0 mi WNW 13.8 mph 21.9 mph 0.02 in Rain Light Rain
4:53 PM 46.0 °F 39.3 °F 44.1 °F 93% 29.74 in 2.0 mi WNW 16.1 mph 23.0 mph 0.04 in Rain Light Rain
5:00 PM 46.4 °F 40.4 °F 44.6 °F 93% 29.73 in 8.0 mi WNW 13.8 mph 20.7 mph 0.00 in Rain Light Rain
5:53 PM 46.0 °F 39.3 °F 43.0 °F 89% 29.75 in 10.0 mi WNW 16.1 mph 21.9 mph 0.00 in   Overcast
6:00 PM 46.4 °F 40.1 °F 42.8 °F 87% 29.74 in 10.0 mi WNW 15.0 mph - N/A   Overcast
6:53 PM 45.0 °F 38.2 °F 43.0 °F 93% 29.77 in 5.0 mi WNW 15.0 mph - N/A   Overcast
7:53 PM 46.0 °F 39.3 °F 43.0 °F 89% 29.77 in 10.0 mi NW 16.1 mph - N/A   Overcast
8:53 PM 46.0 °F 40.6 °F 43.0 °F 89% 29.78 in 10.0 mi NW 11.5 mph - N/A   Overcast
9:53 PM 45.0 °F 39.7 °F 42.1 °F 90% 29.80 in 10.0 mi NW 10.4 mph - N/A   Overcast
10:53 PM 45.0 °F 39.7 °F 42.1 °F 90% 29.79 in 10.0 mi NW 10.4 mph - N/A   Overcast
11:53 PM 45.0 °F 38.9 °F 41.0 °F 86% 29.80 in 10.0 mi NW 12.7 mph - N/A   Overcast